Hourly Data Report for May 16, 2021

CARIBOU POINT (AUT)
NOVA SCOTIA
Current Station Operator: ECCC - MSC

45°46'00.000" N
62°41'00.000" W
2.40 m
8200774
71415
WBK

Download Data

Hourly Data (May 2021)
Hourly Data Report for May 16, 2021
TIME
LST
Temp Definition
°C
Dew Point Definition
°C
Rel Hum Definition
%
Precip. Amount Definition
mm

Wind Dir Definition
10's deg

Wind Spd Definition
km/h
Visibility Definition
km
Stn Press Definition
kPa
Hmdx Definition


Wind Chill Definition


Weather Definition


00:00 8.3 4.5 77 0.0 16 9   102.39     LegendNANA
01:00 8.1 3.6 73 0.0 15 14   102.29     LegendNANA
02:00 7.6 2.2 69 0.0 20 9   102.30     LegendNANA
03:00 7.4 2.8 72 0.0 19 12   102.31     LegendNANA
04:00 7.5 3.1 73 0.0 20 6   102.37     LegendNANA
05:00 8.1 4.7 79 0.0 9 10   102.39     LegendNANA
06:00 8.2 4.3 76 0.0 11 10   102.42     LegendNANA
07:00 8.5 4.4 75 0.0 14 9   102.45     LegendNANA
08:00 8.9 5.1 77 0.0 12 11   102.48     LegendNANA
09:00 8.7 6.4 85 0.0 11 17   102.48     LegendNANA
10:00 10.6 5.7 72 0.0 15 13   102.50     LegendNANA
11:00 11.3 7.1 75 0.0 9 10   102.52     LegendNANA
12:00 11.2 7.5 78 0.0 7 14   102.50     LegendNANA
13:00 11.2 7.5 78 0.0 6 16   102.50     LegendNANA
14:00 10.4 6.4 76 0.0 4 20   102.50     LegendNANA
15:00 11.6 5.5 66 0.0 5 24   102.49     LegendNANA
16:00 11.3 5.2 66 0.0 5 27   102.48     LegendNANA
17:00 9.3 6.2 81 0.0 5 30   102.50     LegendNANA
18:00 9.0 6.0 82 0.0 4 28   102.51     LegendNANA
19:00 8.7 5.5 81 0.0 5 29   102.51     LegendNANA
20:00 8.8 6.4 85 0.0 6 19   102.54     LegendNANA
21:00 8.7 7.2 90 0.0 10 18   102.59     LegendNANA
22:00 8.5 7.3 93 0.0 13 10   102.58     LegendNANA
23:00 8.5 7.1 91 0.0 17 11   102.59     LegendNANA

Notes on Data Quality.

Legend

  • E = Estimated
  • M = Missing
  • NA = Not Available*
  • [empty] = Indicates an unobserved value
Date modified: